Weather Roundup
Issued by NWS

Home | Current Version | Previous Version | Graphics & Text | Print | Product List | Glossary Off
Versions: 1 2 3 4 5 6 7 8 9 10 11 12 13 14 15 16 17 18 19 20 21 22 23 24 25 26 27 28 29 30 31 32 33 34 35 36 37 38 39 40 41 42 43 44 45 46 47 48 49 50

974
NZUS93 KARX 231259
HRRWXR

CURRENT HOURLY OBSERVATIONS ACROSS
MUCH OF THE UPPER MISSISSIPPI VALLEY
NATIONAL WEATHER SERVICE LA CROSSE WI
800 AM CDT TUE AUG 23 2016


...SOUTHEAST MINNESOTA...


CITY           SKY/WX    TMP DP  RH WIND       PRES   REMARKS
ROCHESTER      MOSUNNY   64  60  87 S12G20    30.04S
ROCHESTER/MAYO FAIR      64  60  86 SE9       30.04R
WINONA         MOSUNNY   70  59  68 SE5       30.05S
AUSTIN         MOSUNNY   63  59  88 S7        30.02S
ALBERT LEA     MOSUNNY   64  61  88 S9        30.01S FOG
DODGE CENTER   MOSUNNY   64  59  82 S14       30.02R
PRESTON        MOSUNNY   63  58  84 S8        30.07R
OWATONNA       MOSUNNY   64  57  77 S10G18    29.99S
FARIBAULT      MOSUNNY   64  61  88 S10G16    29.99R
$$

...ELSEWHERE IN MINNESOTA...


CITY           SKY/WX    TMP DP  RH WIND       PRES   REMARKS
MINNEAPOLIS    MOSUNNY   68  60  75 S12       29.95S
INTNL FALLS    CLOUDY    66  63  90 SE5       29.80S
DULUTH         MOSUNNY   68  61  78 SW15G21   29.91S
RED WING       MOSUNNY   70  61  73 SE7       29.99R
REDWOOD FALLS  MOSUNNY   68  61  78 S13       29.88S
MANKATO        MOSUNNY   66  59  77 S12       29.95S
WORTHINGTON    MOSUNNY   67  61  81 S13       29.93R
FAIRMONT       NOT AVBL
$$

...SOUTHWEST WISCONSIN...


CITY           SKY/WX    TMP DP  RH WIND       PRES   REMARKS
LA CROSSE      MOSUNNY   70  67  90 S14       30.06R
PRAIRIE DU CHI MOSUNNY   64  58  82 E6        30.10R
BOSCOBEL       SUNNY     68  60  75 CALM      30.11S
LONE ROCK      NOT AVBL
PLATTEVILLE    SUNNY     63  61  94 S8        30.14R
FORT MC COY    MOSUNNY   66  60  80 SW5       30.09R
MAUSTON-NEW LI SUNNY     65  60  85 S7        30.10R
VIROQUA        FAIR      64  59  84 S7        30.11R
WIS DELLS      NOT AVBL
$$

...ELSEWHERE IN WISCONSIN...


CITY           SKY/WX    TMP DP  RH WIND       PRES   REMARKS
MILWAUKEE      MOSUNNY   68  59  73 SW10      30.18R
MADISON        MOSUNNY   65  58  78 S9        30.15R
GREEN BAY      SUNNY     65  62  90 S8        30.13R
EAU CLAIRE     NOT AVBL
BLACK RVR FLS  FAIR      63  63 100 CALM      30.07R
MEDFORD        SUNNY     62  62 100 S8        30.08S
WAUSAU         SUNNY     65  60  84 SW3       30.09R
WIS RAPIDS     SUNNY     66  61  84 S6        30.12R
MARSHFIELD     SUNNY     63  59  87 S9        30.09R
RICE LAKE      SUNNY     65  59  80 SE5       30.02S
$$

...NORTHEAST IOWA...


CITY           SKY/WX    TMP DP  RH WIND       PRES   REMARKS
WATERLOO       MOSUNNY   65  59  81 S10G20    30.06R
DUBUQUE        SUNNY     63  59  87 S9        30.14R
DECORAH        MOSUNNY   64  61  88 S8        30.07S
MASON CITY     CLOUDY    63  60  90 S9        30.04R
CHARLES CITY   MOSUNNY   63  63 100 S8G14     30.07R
OELWEIN        SUNNY     63  61  94 S10       30.10R
$$

...ELSEWHERE IN IOWA...


CITY           SKY/WX    TMP DP  RH WIND       PRES   REMARKS
DES MOINES     MOSUNNY   67  62  84 S12       30.04R
IOWA CITY      MOSUNNY   63  60  90 SE5       30.14R
FORT DODGE     MOSUNNY   66  61  82 S10       30.01R
MARSHALLTOWN   MOSUNNY   65  62  90 SE8       30.06R
CEDAR RAPIDS   MOSUNNY   64  62  93 S9        30.11R
$$

...NORTHERN ILLINOIS...


CITY           SKY/WX    TMP DP  RH WIND       PRES   REMARKS
CHICAGO-OHARE  MOSUNNY   67  59  75 S9        30.20R
CHICAGO-MIDWAY MOSUNNY   69  57  65 S8        30.21R
MOLINE         CLOUDY    66  60  81 S9        30.15R
ROCKFORD       MOSUNNY   64  59  83 S9        30.19R
PEORIA         MOSUNNY   66  61  84 S8        30.19R
$$

NOTE: "FAIR" INDICATES FEW OR NO CLOUDS BELOW 12,000 FEET WITH NO
SIGNIFICANT WEATHER AND/OR OBSTRUCTIONS TO VISIBILITY. WIND
SPEEDS ARE IN MILES-PER-HOUR.




USA.gov is the U.S. government's official web portal to all federal, state and local government web resources and services.